Back to catalog

STARLINK-34272

AliveCommunicationsVLEO
NORAD 64274·PAYLOAD·🇺🇸 United States

Launched Jun 4, 2025 from Vandenberg Space Force Base

Loading…

Next Passes (next 24 hours)

TLE

FreshSource: CelesTrak SupGP

Epoch: Sep 14, 2026, 15:33 UTC

1 64274C 25120U   26257.64840278  .00043631  00000+0  12894-2 0  2573
2 64274  53.1594 316.7583 0001293  75.0814  89.4677 15.34361534    12

Track STARLINK-34272 in real time with AllMySat

Download on the App Store